Location: G�ndlingen
(48.0142°N, 7.6396°E)
Time: 18:10:26
(UTC+00:00)

Cosmos 1844 Rocket - Pass Details

Date: 05 July 2020
Orbit: 826 x 843 km, 71.0° (Epoch: 12 August)

Event Time Altitude Azimuth Distance (km) Brightness Sun altitude
Rises 21:05:31 0° 327° (NNW) 3,376 8.0 -11.8°
Reaches altitude 10° 21:08:03 10° 321° (NW) 2,438 6.6 -12.1°
Maximum altitude 21:13:16 42° 252° (WSW) 1,170 3.6 -12.6°
Enters shadow 21:18:10 11° 184° (S) 2,324 4.5 -13.0°
